Location: Bannatyne
(13.0833°N, 59.5333°W)
Time: 04:22:58
(UTC+00:00)

deb Explorer IX - Pass Details

Date: 31 January 2020
Orbit: 549 x 1099 km, 38.8° (Epoch: 19 February)

Event Time Altitude Azimuth Distance (km) Brightness Sun altitude
Rises 07:35:49 0° 293° (WNW) 3,862 - -40.7°
Reaches altitude 10° 07:38:58 10° 284° (WNW) 2,861 - -39.9°
Maximum altitude 07:44:59 31° 225° (SW) 1,638 - -38.5°
Exits shadow 07:49:26 15° 170° (S) 2,293 ? -37.4°
Drops below altitude 10° 07:50:26 10° 164° (SSE) 2,573 ? -37.2°
Sets 07:53:08 0° 154° (SSE) 3,420 ? -36.5°
